{"data":{"norad_id":58291,"intl_designator":"2023-174AM","name":"FALCONSAT-10","alt_names":[],"object_type":"PAYLOAD","status":"ACTIVE","operator":null,"country":"US","launch_date":"2023-11-11","launch_site_code":"AFWTR","launch_vehicle":null,"mission":null,"orbit_class":"UNKNOWN","rcs_meters":null,"size_class":null,"mass_kg":null,"dimensions":null,"purposes":[],"wikipedia_slug":null,"has_3d_model":false,"image_url":null,"decayed_at":null,"tle_current":{"epoch":"2026-05-25T04:06:19.783584Z","epoch_age_seconds":50411,"freshness":"FRESH","line1":"1 58291U 23174AM  26145.17106231  .00004459  00000+0  16875-3 0  9992","line2":"2 58291  97.3806 221.4535 0006777 267.8240  92.2224 15.27436924141255","mean_motion":15.27436924,"eccentricity":0.0006777,"inclination_deg":97.3806,"raan_deg":221.4535,"arg_perigee_deg":267.824,"mean_anomaly_deg":92.2224,"bstar":0.00016875,"rev_number":14125,"period_min":94.27557874069,"perigee_km":478.82743431581,"apogee_km":488.12766667756,"semimajor_km":6861.6145504967,"source":"CELESTRAK","updated_at":"2026-05-25T13:38:00.645129Z"}}}